Location: Untermarchtal
(48.2403°N, 9.6117°E)
Time: 08:14:29
(UTC+01:00)

ISS - Pass Details

Date: 11 January 2018
Orbit: 401 x 406 km, 51.6° (Epoch: 17 January)

Event Time Altitude Azimuth Distance (km) Brightness Sun altitude
Exits shadow 05:42:28 38° 79° (E) 631 -2.4 -23.8°
Drops below altitude 10° 05:44:43 10° 98° (E) 1,464 0.1 -23.4°
Sets 05:46:49 0° 102° (ESE) 2,323 1.5 -23.0°
